          19 14  12 07.64  +31 19.1   3.320  4.052     5.1 / 297  18.7   82  .89

          20 14  12 07.28  +31 21.4   3.324  4.047     4.9 / 295  18.7   95  .80

          21 14  12 06.93  +31 23.6   3.328  4.043     4.7 / 294  18.7  108  .71

          22 14  12 06.59  +31 25.5   3.333  4.038     4.5 / 292  18.7  120  .60

          23 14  12 06.27  +31 27.2   3.337  4.034     4.3 / 291  18.7  132  .49

          24 14  12 05.95  +31 28.7   3.342  4.029     4.1 / 289  18.7  142  .39

          25 14  12 05.65  +31 30.0   3.347  4.024     3.9 / 287  18.7  151  .29

          26 14  12 05.36  +31 31.2   3.352  4.020     3.7 / 285  18.7  155  .21

          27 14  12 05.09  +31 32.1   3.358  4.015     3.5 / 283  18.7  155  .13

          28 14  12 04.82  +31 32.9   3.363  4.011     3.2 / 280  18.7  149  .08

          29 14  12 04.57  +31 33.5   3.369  4.006     3.0 / 277  18.7  141  .03

          30 14  12 04.33  +31 33.8   3.375  4.001     2.9 / 274  18.7  132  .01

     May   1 14  12 04.11  +31 34.0   3.380  3.997     2.7 / 270  18.7  122  .00



NAKANO

         **** Don't distribute anyone except personal use only ****

                (C) Copyright 2003 OAA/ComputingSection

write mail from CFAD0::NAKANO on 2003-03-28 05:52:55(JST).

 



    C/2003 E1 (NEAT)                                                      

T 2004 Jan. 29.05192 TT                                 Nakano

q   2.7903936            (2000.0)            P               Q

                   Peri.  113.76112     -0.25114240     +0.89142872

                   Node   135.61648     -0.96027839     -0.27842135

e   1.0            Incl.   32.63461     +0.12162610     -0.35754215

From 27 observations 2003 Mar. 9-13.



NAKANO

         **** Don't distribute anyone except personal use only ****

                (C) Copyright 2003 OAA/ComputingSection

write mail from CFAD0::NAKANO on 2003-03-20 00:36:21(JST).

 



戻ります。